Time,TemperatureF,DewpointF,PressureIn,WindDirection,WindDirectionDegrees,WindSpeedMPH,WindSpeedGustMPH,Humidity,HourlyPrecipIn,Conditions,Clouds,dailyrainin,SoftwareType,DateUTC
2013-01-15 00:00:00,32.2,25.2,30.57,SW,226,0.0,3.0,75,0.00,,,0.00,Wunderground v.1.15,2013-01-15 08:00:00,
2013-01-15 00:05:00,32.2,25.2,30.57,South,184,0.0,3.0,75,0.00,,,0.00,Wunderground v.1.15,2013-01-15 08:05:00,
2013-01-15 00:10:00,32.2,25.5,30.57,SSE,156,0.0,3.0,76,0.00,,,0.00,Wunderground v.1.15,2013-01-15 08:10:00,
2013-01-15 00:15:00,32.2,25.5,30.57,SSE,149,0.0,3.0,76,0.00,,,0.00,Wunderground v.1.15,2013-01-15 08:15:00,
2013-01-15 00:20:00,32.1,25.4,30.57,SSE,149,0.0,3.0,76,0.00,,,0.00,Wunderground v.1.15,2013-01-15 08:20:00,
2013-01-15 00:25:00,32.2,25.5,30.57,SSE,150,0.0,3.0,76,0.00,,,0.00,Wunderground v.1.15,2013-01-15 08:25:00,
2013-01-15 00:30:00,32.1,25.4,30.57,SSE,149,0.0,3.0,76,0.00,,,0.00,Wunderground v.1.15,2013-01-15 08:30:00,
2013-01-15 00:35:00,32.1,25.4,30.58,SSE,149,0.0,3.0,76,0.00,,,0.00,Wunderground v.1.15,2013-01-15 08:35:00,
2013-01-15 00:40:00,32.1,25.4,30.57,ESE,107,0.0,3.0,76,0.00,,,0.00,Wunderground v.1.15,2013-01-15 08:40:00,
2013-01-15 00:45:00,32.1,25.4,30.57,SW,224,0.0,3.0,76,0.00,,,0.00,Wunderground v.1.15,2013-01-15 08:45:00,
2013-01-15 00:50:00,32.2,25.5,30.58,SW,222,0.0,3.0,76,0.00,,,0.00,Wunderground v.1.15,2013-01-15 08:50:00,
2013-01-15 00:55:00,32.3,25.9,30.58,SSE,153,0.0,3.0,77,0.00,,,0.00,Wunderground v.1.15,2013-01-15 08:55:00,
2013-01-15 01:00:00,32.3,26.2,30.58,ESE,118,0.0,3.0,78,0.00,,,0.00,Wunderground v.1.15,2013-01-15 09:00:00,
2013-01-15 01:05:00,32.3,26.2,30.57,North,5,0.0,3.0,78,0.00,,,0.00,Wunderground v.1.15,2013-01-15 09:05:00,
2013-01-15 01:10:00,32.3,26.2,30.58,NW,311,0.0,3.0,78,0.00,,,0.00,Wunderground v.1.15,2013-01-15 09:10:00,
2013-01-15 01:15:00,32.4,26.3,30.58,WNW,294,0.0,3.0,78,0.00,,,0.00,Wunderground v.1.15,2013-01-15 09:15:00,
2013-01-15 01:20:00,32.5,26.7,30.58,WSW,250,0.0,3.0,79,0.00,,,0.00,Wunderground v.1.15,2013-01-15 09:20:00,
2013-01-15 01:30:00,32.5,27.0,30.59,ESE,121,0.0,3.0,80,0.00,,,0.00,Wunderground v.1.15,2013-01-15 09:30:00,
2013-01-15 01:35:00,32.6,27.1,30.59,ESE,121,0.0,3.0,80,0.00,,,0.00,Wunderground v.1.15,2013-01-15 09:35:00,
2013-01-15 01:40:00,32.6,27.1,30.60,ESE,121,0.0,3.0,80,0.00,,,0.00,Wunderground v.1.15,2013-01-15 09:40:00,
2013-01-15 01:45:00,32.6,27.1,30.60,ESE,122,0.0,3.0,80,0.00,,,0.00,Wunderground v.1.15,2013-01-15 09:45:00,
2013-01-15 01:50:00,32.5,27.0,30.60,ESE,121,0.0,3.0,80,0.00,,,0.00,Wunderground v.1.15,2013-01-15 09:50:00,
2013-01-15 01:55:00,32.6,26.8,30.60,NW,316,0.0,3.0,79,0.00,,,0.00,Wunderground v.1.15,2013-01-15 09:55:00,
2013-01-15 02:00:00,32.6,26.8,30.60,NW,316,0.0,3.0,79,0.00,,,0.00,Wunderground v.1.15,2013-01-15 10:00:00,
2013-01-15 02:05:00,32.5,26.7,30.60,NW,316,0.0,3.0,79,0.00,,,0.00,Wunderground v.1.15,2013-01-15 10:05:00,
2013-01-15 02:15:00,32.4,26.3,30.61,NW,311,0.0,3.0,78,0.00,,,0.00,Wunderground v.1.15,2013-01-15 10:15:00,
2013-01-15 02:20:00,32.5,26.1,30.61,ENE,72,0.0,3.0,77,0.00,,,0.00,Wunderground v.1.15,2013-01-15 10:20:00,
2013-01-15 02:25:00,32.5,26.1,30.61,NW,318,0.0,3.0,77,0.00,,,0.00,Wunderground v.1.15,2013-01-15 10:25:00,
2013-01-15 02:30:00,32.5,26.4,30.61,ESE,103,0.0,3.0,78,0.00,,,0.00,Wunderground v.1.15,2013-01-15 10:30:00,
2013-01-15 02:40:00,32.4,26.3,30.61,NNW,333,0.0,3.0,78,0.00,,,0.00,Wunderground v.1.15,2013-01-15 10:40:00,
2013-01-15 02:45:00,32.4,26.3,30.61,West,281,0.0,3.0,78,0.00,,,0.00,Wunderground v.1.15,2013-01-15 10:45:00,
2013-01-15 02:50:00,32.5,26.4,30.62,West,281,0.0,3.0,78,0.00,,,0.00,Wunderground v.1.15,2013-01-15 10:50:00,
2013-01-15 02:55:00,32.5,26.7,30.62,West,281,0.0,3.0,79,0.00,,,0.00,Wunderground v.1.15,2013-01-15 10:55:00,
2013-01-15 03:05:00,32.5,26.7,30.62,West,273,0.0,3.0,79,0.00,,,0.00,Wunderground v.1.15,2013-01-15 11:05:00,
2013-01-15 03:10:00,32.5,26.7,30.62,West,275,0.0,3.0,79,0.00,,,0.00,Wunderground v.1.15,2013-01-15 11:10:00,
2013-01-15 03:15:00,32.4,26.6,30.62,WNW,294,0.0,3.0,79,0.00,,,0.00,Wunderground v.1.15,2013-01-15 11:15:00,
2013-01-15 03:20:00,32.4,26.6,30.62,WNW,294,0.0,3.0,79,0.00,,,0.00,Wunderground v.1.15,2013-01-15 11:20:00,
2013-01-15 03:25:00,32.5,26.7,30.62,North,7,0.0,3.0,79,0.00,,,0.00,Wunderground v.1.15,2013-01-15 11:25:00,
2013-01-15 03:30:00,32.5,26.7,30.62,North,355,0.0,3.0,79,0.00,,,0.00,Wunderground v.1.15,2013-01-15 11:30:00,
2013-01-15 03:35:00,32.5,27.0,30.62,NNW,343,0.0,3.0,80,0.00,,,0.00,Wunderground v.1.15,2013-01-15 11:35:00,
2013-01-15 03:40:00,32.4,26.9,30.62,NNW,345,0.0,3.0,80,0.00,,,0.00,Wunderground v.1.15,2013-01-15 11:40:00,
2013-01-15 03:50:00,32.3,26.8,30.62,NNE,19,0.0,3.0,80,0.00,,,0.00,Wunderground v.1.15,2013-01-15 11:50:00,
2013-01-15 03:55:00,32.3,26.5,30.62,WNW,283,0.0,3.0,79,0.00,,,0.00,Wunderground v.1.15,2013-01-15 11:55:00,
2013-01-15 04:00:00,32.3,26.5,30.62,WNW,282,0.0,3.0,79,0.00,,,0.00,Wunderground v.1.15,2013-01-15 12:00:00,
2013-01-15 04:05:00,32.4,26.6,30.62,West,264,0.0,3.0,79,0.00,,,0.00,Wunderground v.1.15,2013-01-15 12:05:00,
2013-01-15 04:10:00,32.4,26.9,30.62,WSW,255,0.0,3.0,80,0.00,,,0.00,Wunderground v.1.15,2013-01-15 12:10:00,
2013-01-15 04:15:00,32.4,27.2,30.62,West,266,0.0,3.0,81,0.00,,,0.00,Wunderground v.1.15,2013-01-15 12:15:00,
2013-01-15 04:20:00,32.5,27.3,30.62,SW,221,1.0,3.0,81,0.00,,,0.00,Wunderground v.1.15,2013-01-15 12:20:00,
2013-01-15 04:25:00,32.5,27.6,30.62,SW,221,1.0,3.0,82,0.00,,,0.00,Wunderground v.1.15,2013-01-15 12:25:00,
2013-01-15 04:35:00,32.5,27.9,30.62,SW,228,1.0,3.0,83,0.00,,,0.00,Wunderground v.1.15,2013-01-15 12:35:00,
2013-01-15 04:40:00,32.5,27.9,30.62,NNE,25,1.0,3.0,83,0.00,,,0.00,Wunderground v.1.15,2013-01-15 12:40:00,
2013-01-15 04:45:00,32.6,27.7,30.62,NW,323,0.0,3.0,82,0.00,,,0.00,Wunderground v.1.15,2013-01-15 12:45:00,
2013-01-15 04:50:00,32.5,27.6,30.62,North,9,0.0,3.0,82,0.00,,,0.00,Wunderground v.1.15,2013-01-15 12:50:00,
2013-01-15 04:55:00,32.5,27.6,30.62,North,9,0.0,3.0,82,0.00,,,0.00,Wunderground v.1.15,2013-01-15 12:55:00,
2013-01-15 05:00:00,32.5,27.6,30.62,NE,41,0.0,3.0,82,0.00,,,0.00,Wunderground v.1.15,2013-01-15 13:00:00,
2013-01-15 05:05:00,32.4,27.5,30.62,NE,41,0.0,3.0,82,0.00,,,0.00,Wunderground v.1.15,2013-01-15 13:05:00,
2013-01-15 05:10:00,32.3,27.1,30.62,NE,42,0.0,3.0,81,0.00,,,0.00,Wunderground v.1.15,2013-01-15 13:10:00,
2013-01-15 05:15:00,32.2,26.7,30.62,NE,41,0.0,3.0,80,0.00,,,0.00,Wunderground v.1.15,2013-01-15 13:15:00,
2013-01-15 05:25:00,32.1,26.3,30.62,NE,41,0.0,3.0,79,0.00,,,0.00,Wunderground v.1.15,2013-01-15 13:25:00,
2013-01-15 05:30:00,32.1,26.0,30.62,NNE,18,0.0,3.0,78,0.00,,,0.00,Wunderground v.1.15,2013-01-15 13:30:00,
2013-01-15 05:35:00,32.1,26.0,30.62,NNE,18,0.0,3.0,78,0.00,,,0.00,Wunderground v.1.15,2013-01-15 13:35:00,
2013-01-15 05:40:00,32.1,26.0,30.62,NNE,18,0.0,3.0,78,0.00,,,0.00,Wunderground v.1.15,2013-01-15 13:40:00,
2013-01-15 05:45:00,32.1,25.7,30.62,NNW,340,0.0,3.0,77,0.00,,,0.00,Wunderground v.1.15,2013-01-15 13:45:00,
2013-01-15 05:50:00,32.1,25.7,30.63,NNE,20,0.0,3.0,77,0.00,,,0.00,Wunderground v.1.15,2013-01-15 13:50:00,
2013-01-15 05:55:00,32.1,25.7,30.62,NE,47,0.0,3.0,77,0.00,,,0.00,Wunderground v.1.15,2013-01-15 13:55:00,
2013-01-15 06:00:00,32.1,25.7,30.63,North,1,0.0,3.0,77,0.00,,,0.00,Wunderground v.1.15,2013-01-15 14:00:00,
2013-01-15 06:05:00,32.1,25.7,30.62,North,1,0.0,3.0,77,0.00,,,0.00,Wunderground v.1.15,2013-01-15 14:05:00,
2013-01-15 06:10:00,32.1,25.7,30.62,North,1,0.0,3.0,77,0.00,,,0.00,Wunderground v.1.15,2013-01-15 14:10:00,
2013-01-15 06:15:00,32.1,25.4,30.62,North,1,0.0,3.0,76,0.00,,,0.00,Wunderground v.1.15,2013-01-15 14:15:00,
2013-01-15 06:20:00,32.1,25.4,30.63,SW,233,0.0,3.0,76,0.00,,,0.00,Wunderground v.1.15,2013-01-15 14:20:00,
2013-01-15 06:25:00,32.2,25.5,30.63,SW,232,0.0,3.0,76,0.00,,,0.00,Wunderground v.1.15,2013-01-15 14:25:00,
2013-01-15 06:35:00,32.2,25.5,30.63,SSW,204,0.0,3.0,76,0.00,,,0.00,Wunderground v.1.15,2013-01-15 14:35:00,
2013-01-15 06:40:00,32.4,25.7,30.63,NW,314,0.0,3.0,76,0.00,,,0.00,Wunderground v.1.15,2013-01-15 14:40:00,
2013-01-15 06:45:00,32.4,26.0,30.63,NW,314,0.0,3.0,77,0.00,,,0.00,Wunderground v.1.15,2013-01-15 14:45:00,
2013-01-15 06:50:00,32.4,26.3,30.64,NW,314,0.0,3.0,78,0.00,,,0.00,Wunderground v.1.15,2013-01-15 14:50:00,
2013-01-15 06:55:00,32.4,26.6,30.64,NW,314,0.0,3.0,79,0.00,,,0.00,Wunderground v.1.15,2013-01-15 14:55:00,
2013-01-15 07:00:00,32.4,26.6,30.64,NW,315,0.0,3.0,79,0.00,,,0.00,Wunderground v.1.15,2013-01-15 15:00:00,
2013-01-15 07:05:00,32.3,26.5,30.64,ENE,62,0.0,3.0,79,0.00,,,0.00,Wunderground v.1.15,2013-01-15 15:05:00,
2013-01-15 07:10:00,32.3,26.2,30.64,ENE,63,0.0,3.0,78,0.00,,,0.00,Wunderground v.1.15,2013-01-15 15:10:00,
2013-01-15 07:15:00,32.4,26.3,30.65,NW,323,0.0,3.0,78,0.00,,,0.00,Wunderground v.1.15,2013-01-15 15:15:00,
2013-01-15 07:20:00,32.4,26.3,30.65,NW,323,0.0,3.0,78,0.00,,,0.00,Wunderground v.1.15,2013-01-15 15:20:00,
2013-01-15 07:25:00,32.4,26.3,30.65,NW,323,0.0,3.0,78,0.00,,,0.00,Wunderground v.1.15,2013-01-15 15:25:00,
2013-01-15 07:30:00,32.3,26.5,30.65,NW,323,0.0,3.0,79,0.00,,,0.00,Wunderground v.1.15,2013-01-15 15:30:00,
2013-01-15 07:35:00,32.3,26.2,30.65,NNE,20,0.0,3.0,78,0.00,,,0.00,Wunderground v.1.15,2013-01-15 15:35:00,
2013-01-15 07:40:00,32.5,26.4,30.65,NNE,16,0.0,3.0,78,0.00,,,0.00,Wunderground v.1.15,2013-01-15 15:40:00,
2013-01-15 07:45:00,32.4,26.3,30.65,NNE,18,0.0,3.0,78,0.00,,,0.00,Wunderground v.1.15,2013-01-15 15:45:00,
2013-01-15 07:50:00,32.3,26.5,30.66,NNE,18,0.0,3.0,79,0.00,,,0.00,Wunderground v.1.15,2013-01-15 15:50:00,
2013-01-15 07:55:00,32.3,26.2,30.66,NNE,18,0.0,3.0,78,0.00,,,0.00,Wunderground v.1.15,2013-01-15 15:55:00,
2013-01-15 08:00:00,32.3,26.2,30.66,NNE,18,0.0,3.0,78,0.00,,,0.00,Wunderground v.1.15,2013-01-15 16:00:00,
2013-01-15 08:05:00,32.3,25.9,30.66,NNE,18,0.0,3.0,77,0.00,,,0.00,Wunderground v.1.15,2013-01-15 16:05:00,
2013-01-15 08:10:00,32.3,25.9,30.67,NNE,18,0.0,3.0,77,0.00,,,0.00,Wunderground v.1.15,2013-01-15 16:10:00,
2013-01-15 08:15:00,32.3,25.9,30.67,NNE,18,0.0,3.0,77,0.00,,,0.00,Wunderground v.1.15,2013-01-15 16:15:00,
2013-01-15 08:20:00,32.3,25.9,30.67,NNE,18,0.0,3.0,77,0.00,,,0.00,Wunderground v.1.15,2013-01-15 16:20:00,
2013-01-15 08:25:00,32.2,25.5,30.67,NNE,18,0.0,3.0,76,0.00,,,0.00,Wunderground v.1.15,2013-01-15 16:25:00,
2013-01-15 08:30:00,32.3,25.6,30.67,NNE,18,0.0,3.0,76,0.00,,,0.00,Wunderground v.1.15,2013-01-15 16:30:00,
2013-01-15 08:35:00,32.4,25.7,30.67,NNE,18,0.0,3.0,76,0.00,,,0.00,Wunderground v.1.15,2013-01-15 16:35:00,
2013-01-15 08:40:00,32.4,25.4,30.67,NNE,18,0.0,3.0,75,0.00,,,0.00,Wunderground v.1.15,2013-01-15 16:40:00,
2013-01-15 08:45:00,32.5,25.5,30.68,North,352,0.0,3.0,75,0.00,,,0.00,Wunderground v.1.15,2013-01-15 16:45:00,
2013-01-15 08:50:00,32.5,25.8,30.67,North,351,0.0,3.0,76,0.00,,,0.00,Wunderground v.1.15,2013-01-15 16:50:00,
2013-01-15 08:55:00,32.6,25.9,30.67,North,352,0.0,3.0,76,0.00,,,0.00,Wunderground v.1.15,2013-01-15 16:55:00,
2013-01-15 09:00:00,32.7,26.0,30.68,ENE,74,0.0,3.0,76,0.00,,,0.00,Wunderground v.1.15,2013-01-15 17:00:00,
2013-01-15 09:05:00,32.8,26.4,30.68,ENE,72,0.0,3.0,77,0.00,,,0.00,Wunderground v.1.15,2013-01-15 17:05:00,
2013-01-15 09:10:00,32.9,26.5,30.68,NW,326,0.0,3.0,77,0.00,,,0.00,Wunderground v.1.15,2013-01-15 17:10:00,
2013-01-15 09:15:00,33.1,27.0,30.68,NW,326,0.0,3.0,78,0.00,,,0.00,Wunderground v.1.15,2013-01-15 17:15:00,
2013-01-15 09:20:00,33.2,27.4,30.68,NW,326,0.0,3.0,79,0.00,,,0.00,Wunderground v.1.15,2013-01-15 17:20:00,
2013-01-15 09:25:00,33.4,28.2,30.68,NNE,29,0.0,3.0,81,0.00,,,0.00,Wunderground v.1.15,2013-01-15 17:25:00,
2013-01-15 09:30:00,33.6,28.7,30.68,NNE,29,0.0,3.0,82,0.00,,,0.00,Wunderground v.1.15,2013-01-15 17:30:00,
2013-01-15 09:35:00,33.7,29.4,30.68,WSW,257,0.0,3.0,84,0.00,,,0.00,Wunderground v.1.15,2013-01-15 17:35:00,
2013-01-15 09:40:00,33.8,29.8,30.68,WSW,256,0.0,3.0,85,0.00,,,0.00,Wunderground v.1.15,2013-01-15 17:40:00,
2013-01-15 09:45:00,34.0,30.0,30.68,SW,233,0.0,3.0,85,0.00,,,0.00,Wunderground v.1.15,2013-01-15 17:45:00,
2013-01-15 09:50:00,34.1,30.1,30.68,SW,233,0.0,3.0,85,0.00,,,0.00,Wunderground v.1.15,2013-01-15 17:50:00,
2013-01-15 09:55:00,34.2,30.4,30.68,SW,233,0.0,3.0,86,0.00,,,0.00,Wunderground v.1.15,2013-01-15 17:55:00,
2013-01-15 10:00:00,34.4,30.6,30.68,SW,233,0.0,3.0,86,0.00,,,0.00,Wunderground v.1.15,2013-01-15 18:00:00,
2013-01-15 10:05:00,34.4,30.6,30.68,WSW,251,0.0,3.0,86,0.00,,,0.00,Wunderground v.1.15,2013-01-15 18:05:00,
2013-01-15 10:10:00,34.4,30.6,30.69,WSW,239,1.0,3.0,86,0.00,,,0.00,Wunderground v.1.15,2013-01-15 18:10:00,
2013-01-15 10:15:00,34.5,31.0,30.68,West,269,1.0,3.0,87,0.00,,,0.00,Wunderground v.1.15,2013-01-15 18:15:00,
2013-01-15 10:20:00,34.5,31.0,30.69,West,277,1.0,1.0,87,0.00,,,0.00,Wunderground v.1.15,2013-01-15 18:20:00,
2013-01-15 10:25:00,34.7,31.2,30.69,West,276,0.0,3.0,87,0.00,,,0.00,Wunderground v.1.15,2013-01-15 18:25:00,
2013-01-15 10:30:00,34.8,31.3,30.69,WSW,249,0.0,3.0,87,0.00,,,0.00,Wunderground v.1.15,2013-01-15 18:30:00,
2013-01-15 10:35:00,35.0,31.5,30.69,West,275,0.0,3.0,87,0.00,,,0.00,Wunderground v.1.15,2013-01-15 18:35:00,
2013-01-15 10:40:00,35.0,31.8,30.69,WNW,303,0.0,3.0,88,0.00,,,0.00,Wunderground v.1.15,2013-01-15 18:40:00,
2013-01-15 10:45:00,35.1,31.9,30.69,NE,38,1.0,3.0,88,0.00,,,0.00,Wunderground v.1.15,2013-01-15 18:45:00,
2013-01-15 10:50:00,35.0,31.8,30.69,NNW,338,1.0,3.0,88,0.00,,,0.00,Wunderground v.1.15,2013-01-15 18:50:00,
2013-01-15 11:00:00,35.2,31.7,30.69,NW,316,0.0,3.0,87,0.00,,,0.00,Wunderground v.1.15,2013-01-15 19:00:00,
2013-01-15 11:05:00,35.5,32.0,30.69,WNW,285,0.0,3.0,87,0.00,,,0.00,Wunderground v.1.15,2013-01-15 19:05:00,
2013-01-15 11:10:00,35.6,32.1,30.69,ENE,64,0.0,3.0,87,0.00,,,0.00,Wunderground v.1.15,2013-01-15 19:10:00,
2013-01-15 11:15:00,35.7,32.2,30.69,ENE,64,0.0,3.0,87,0.00,,,0.00,Wunderground v.1.15,2013-01-15 19:15:00,
2013-01-15 11:20:00,35.8,32.3,30.69,ENE,64,0.0,3.0,87,0.00,,,0.00,Wunderground v.1.15,2013-01-15 19:20:00,
2013-01-15 11:25:00,36.1,32.6,30.69,ENE,64,0.0,3.0,87,0.00,,,0.01,Wunderground v.1.15,2013-01-15 19:25:00,
2013-01-15 11:30:00,36.3,33.1,30.69,East,96,0.0,3.0,88,0.00,,,0.01,Wunderground v.1.15,2013-01-15 19:30:00,
2013-01-15 11:35:00,36.7,33.5,30.69,East,96,0.0,3.0,88,0.00,,,0.01,Wunderground v.1.15,2013-01-15 19:35:00,
2013-01-15 11:40:00,36.9,33.7,30.69,East,96,0.0,3.0,88,0.00,,,0.01,Wunderground v.1.15,2013-01-15 19:40:00,
2013-01-15 11:45:00,37.0,33.5,30.69,ESE,110,0.0,3.0,87,0.00,,,0.01,Wunderground v.1.15,2013-01-15 19:45:00,
2013-01-15 11:50:00,37.0,33.5,30.68,North,6,0.0,3.0,87,0.00,,,0.01,Wunderground v.1.15,2013-01-15 19:50:00,
2013-01-15 11:55:00,37.1,33.6,30.68,North,360,0.0,3.0,87,0.00,,,0.02,Wunderground v.1.15,2013-01-15 19:55:00,
2013-01-15 12:00:00,37.2,33.7,30.68,NNE,19,0.0,3.0,87,0.00,,,0.02,Wunderground v.1.15,2013-01-15 20:00:00,
2013-01-15 12:05:00,37.5,34.0,30.68,NNE,19,0.0,3.0,87,0.00,,,0.02,Wunderground v.1.15,2013-01-15 20:05:00,
2013-01-15 12:10:00,37.7,34.2,30.67,NW,309,0.0,3.0,87,0.04,,,0.03,Wunderground v.1.15,2013-01-15 20:10:00,
2013-01-15 12:15:00,37.5,34.0,30.67,NW,318,0.0,3.0,87,0.04,,,0.03,Wunderground v.1.15,2013-01-15 20:15:00,
2013-01-15 12:20:00,37.5,34.0,30.67,ENE,69,0.0,3.0,87,0.04,,,0.03,Wunderground v.1.15,2013-01-15 20:20:00,
2013-01-15 12:25:00,37.5,34.0,30.67,NE,47,0.0,3.0,87,0.05,,,0.04,Wunderground v.1.15,2013-01-15 20:25:00,
2013-01-15 12:30:00,37.7,34.2,30.67,NE,49,0.0,3.0,87,0.05,,,0.04,Wunderground v.1.15,2013-01-15 20:30:00,
2013-01-15 12:35:00,38.0,34.5,30.67,NE,47,0.0,3.0,87,0.06,,,0.05,Wunderground v.1.15,2013-01-15 20:35:00,
2013-01-15 12:40:00,38.1,34.6,30.67,NE,47,0.0,3.0,87,0.06,,,0.05,Wunderground v.1.15,2013-01-15 20:40:00,
2013-01-15 12:45:00,38.1,34.6,30.67,NE,47,0.0,3.0,87,0.05,,,0.06,Wunderground v.1.15,2013-01-15 20:45:00,
2013-01-15 12:50:00,38.1,34.3,30.67,SSW,197,0.0,3.0,86,0.05,,,0.06,Wunderground v.1.15,2013-01-15 20:50:00,
2013-01-15 12:55:00,38.4,34.6,30.67,SSW,197,0.0,3.0,86,0.06,,,0.07,Wunderground v.1.15,2013-01-15 20:55:00,
2013-01-15 13:00:00,38.8,35.0,30.67,SSW,197,0.0,3.0,86,0.06,,,0.07,Wunderground v.1.15,2013-01-15 21:00:00,
2013-01-15 13:05:00,38.7,34.9,30.67,SSW,195,0.0,3.0,86,0.06,,,0.07,Wunderground v.1.15,2013-01-15 21:05:00,
2013-01-15 13:10:00,38.8,35.0,30.67,SSW,195,0.0,3.0,86,0.05,,,0.08,Wunderground v.1.15,2013-01-15 21:10:00,
2013-01-15 13:15:00,38.9,35.4,30.67,SSW,195,0.0,3.0,87,0.05,,,0.08,Wunderground v.1.15,2013-01-15 21:15:00,
2013-01-15 13:20:00,38.6,35.1,30.67,SSW,195,0.0,3.0,87,0.05,,,0.09,Wunderground v.1.15,2013-01-15 21:20:00,
2013-01-15 13:25:00,38.3,34.8,30.67,SSW,195,0.0,3.0,87,0.05,,,0.09,Wunderground v.1.15,2013-01-15 21:25:00,
2013-01-15 13:30:00,38.5,35.0,30.67,SSW,195,0.0,3.0,87,0.06,,,0.10,Wunderground v.1.15,2013-01-15 21:30:00,
2013-01-15 13:35:00,38.9,35.4,30.67,SSW,195,0.0,3.0,87,0.06,,,0.10,Wunderground v.1.15,2013-01-15 21:35:00,
2013-01-15 13:40:00,39.1,35.6,30.67,SSW,195,0.0,3.0,87,0.05,,,0.11,Wunderground v.1.15,2013-01-15 21:40:00,
2013-01-15 13:45:00,38.9,35.4,30.67,NW,314,0.0,3.0,87,0.05,,,0.11,Wunderground v.1.15,2013-01-15 21:45:00,
2013-01-15 13:50:00,38.8,35.3,30.67,NW,314,0.0,3.0,87,0.06,,,0.12,Wunderground v.1.15,2013-01-15 21:50:00,
2013-01-15 13:55:00,38.9,35.4,30.67,NW,313,0.0,3.0,87,0.06,,,0.12,Wunderground v.1.15,2013-01-15 21:55:00,
2013-01-15 14:00:00,39.0,35.5,30.68,NW,314,0.0,3.0,87,0.07,,,0.13,Wunderground v.1.15,2013-01-15 22:00:00,
2013-01-15 14:05:00,39.1,35.6,30.68,WNW,291,0.0,3.0,87,0.07,,,0.13,Wunderground v.1.15,2013-01-15 22:05:00,
2013-01-15 14:10:00,39.2,35.7,30.68,WNW,295,0.0,3.0,87,0.06,,,0.14,Wunderground v.1.15,2013-01-15 22:10:00,
2013-01-15 14:15:00,39.2,35.4,30.68,WNW,295,0.0,3.0,86,0.06,,,0.14,Wunderground v.1.15,2013-01-15 22:15:00,
2013-01-15 14:20:00,39.0,34.9,30.68,NW,316,0.0,3.0,85,0.06,,,0.15,Wunderground v.1.15,2013-01-15 22:20:00,
2013-01-15 14:25:00,38.7,34.6,30.68,WNW,285,0.0,3.0,85,0.06,,,0.15,Wunderground v.1.15,2013-01-15 22:25:00,
2013-01-15 14:30:00,38.5,34.7,30.68,NNE,31,1.0,1.0,86,0.05,,,0.15,Wunderground v.1.15,2013-01-15 22:30:00,
2013-01-15 14:35:00,38.5,34.7,30.68,North,356,0.0,3.0,86,0.05,,,0.16,Wunderground v.1.15,2013-01-15 22:35:00,
2013-01-15 14:40:00,38.8,35.3,30.68,North,356,0.0,3.0,87,0.05,,,0.16,Wunderground v.1.15,2013-01-15 22:40:00,
2013-01-15 14:50:00,39.0,34.9,30.68,NNE,15,0.0,3.0,85,0.04,,,0.17,Wunderground v.1.15,2013-01-15 22:50:00,
2013-01-15 14:55:00,38.7,34.3,30.68,North,5,0.0,3.0,84,0.04,,,0.17,Wunderground v.1.15,2013-01-15 22:55:00,
2013-01-15 15:00:00,38.6,34.8,30.68,North,5,0.0,3.0,86,0.04,,,0.17,Wunderground v.1.15,2013-01-15 23:00:00,
2013-01-15 15:05:00,38.2,34.4,30.68,North,5,1.0,3.0,86,0.00,,,0.17,Wunderground v.1.15,2013-01-15 23:05:00,
2013-01-15 15:10:00,37.8,34.3,30.68,North,6,0.0,3.0,87,0.00,,,0.18,Wunderground v.1.15,2013-01-15 23:10:00,
2013-01-15 15:15:00,37.6,34.1,30.68,North,6,0.0,3.0,87,0.00,,,0.18,Wunderground v.1.15,2013-01-15 23:15:00,
2013-01-15 15:20:00,37.3,33.8,30.68,North,7,1.0,3.0,87,0.00,,,0.18,Wunderground v.1.15,2013-01-15 23:20:00,
2013-01-15 15:25:00,36.9,33.4,30.69,North,6,1.0,3.0,87,0.00,,,0.18,Wunderground v.1.15,2013-01-15 23:25:00,
2013-01-15 15:30:00,36.6,33.1,30.69,North,6,0.0,3.0,87,0.00,,,0.18,Wunderground v.1.15,2013-01-15 23:30:00,
2013-01-15 15:35:00,36.3,32.8,30.69,North,6,0.0,3.0,87,0.00,,,0.18,Wunderground v.1.15,2013-01-15 23:35:00,
2013-01-15 15:40:00,36.0,32.5,30.68,North,6,0.0,3.0,87,0.00,,,0.18,Wunderground v.1.15,2013-01-15 23:40:00,
2013-01-15 15:45:00,35.7,31.9,30.68,NNE,13,0.0,3.0,86,0.00,,,0.18,Wunderground v.1.15,2013-01-15 23:45:00,
2013-01-15 15:50:00,35.2,31.4,30.68,NNE,13,0.0,3.0,86,0.00,,,0.18,Wunderground v.1.15,2013-01-15 23:50:00,
2013-01-15 15:55:00,35.1,31.0,30.68,NNE,13,1.0,3.0,85,0.00,,,0.18,Wunderground v.1.15,2013-01-15 23:55:00,
2013-01-15 16:00:00,34.7,30.7,30.68,NNE,13,1.0,1.0,85,0.00,,,0.18,Wunderground v.1.15,2013-01-16 00:00:00,
2013-01-15 16:05:00,34.4,30.1,30.68,NNE,13,1.0,3.0,84,0.00,,,0.18,Wunderground v.1.15,2013-01-16 00:05:00,
2013-01-15 16:15:00,33.9,29.0,30.68,NNE,14,1.0,3.0,82,0.00,,,0.18,Wunderground v.1.15,2013-01-16 00:15:00,
2013-01-15 16:20:00,33.6,28.7,30.68,NNE,14,1.0,1.0,82,0.00,,,0.19,Wunderground v.1.15,2013-01-16 00:20:00,
2013-01-15 16:25:00,33.3,28.4,30.68,NNE,14,1.0,3.0,82,0.00,,,0.19,Wunderground v.1.15,2013-01-16 00:25:00,
2013-01-15 16:30:00,33.1,27.9,30.68,NNE,15,1.0,1.0,81,0.00,,,0.19,Wunderground v.1.15,2013-01-16 00:30:00,
2013-01-15 16:35:00,32.9,27.4,30.68,WNW,298,1.0,3.0,80,0.00,,,0.19,Wunderground v.1.15,2013-01-16 00:35:00,
2013-01-15 16:40:00,32.8,27.0,30.68,NW,321,1.0,3.0,79,0.00,,,0.19,Wunderground v.1.15,2013-01-16 00:40:00,
2013-01-15 16:45:00,32.5,27.0,30.68,NW,320,1.0,3.0,80,0.00,,,0.19,Wunderground v.1.15,2013-01-16 00:45:00,
2013-01-15 16:50:00,32.1,26.6,30.68,NNW,347,0.0,3.0,80,0.00,,,0.19,Wunderground v.1.15,2013-01-16 00:50:00,
2013-01-15 16:55:00,32.0,26.2,30.68,NNE,22,1.0,3.0,79,0.00,,,0.19,Wunderground v.1.15,2013-01-16 00:55:00,
2013-01-15 17:05:00,31.3,25.8,30.68,NNE,21,0.0,3.0,80,0.00,,,0.19,Wunderground v.1.15,2013-01-16 01:05:00,
2013-01-15 17:10:00,31.1,25.3,30.68,NNE,22,1.0,1.0,79,0.00,,,0.19,Wunderground v.1.15,2013-01-16 01:10:00,
2013-01-15 17:15:00,30.9,24.8,30.68,NNE,22,1.0,3.0,78,0.00,,,0.19,Wunderground v.1.15,2013-01-16 01:15:00,
2013-01-15 17:20:00,30.8,24.7,30.68,NNE,22,1.0,3.0,78,0.00,,,0.19,Wunderground v.1.15,2013-01-16 01:20:00,
2013-01-15 17:30:00,30.5,24.1,30.68,NNE,22,0.0,3.0,77,0.00,,,0.19,Wunderground v.1.15,2013-01-16 01:30:00,
2013-01-15 17:35:00,30.4,24.1,30.68,NNE,21,0.0,3.0,77,0.00,,,0.19,Wunderground v.1.15,2013-01-16 01:35:00,
2013-01-15 17:40:00,30.3,23.6,30.68,NNE,22,0.0,3.0,76,0.00,,,0.19,Wunderground v.1.15,2013-01-16 01:40:00,
2013-01-15 17:50:00,30.5,23.5,30.68,North,359,1.0,1.0,75,0.00,,,0.19,Wunderground v.1.15,2013-01-16 01:50:00,
2013-01-15 17:55:00,30.4,23.4,30.68,North,359,0.0,3.0,75,0.00,,,0.19,Wunderground v.1.15,2013-01-16 01:55:00,
2013-01-15 18:00:00,30.4,23.4,30.68,NNE,22,0.0,3.0,75,0.00,,,0.19,Wunderground v.1.15,2013-01-16 02:00:00,
2013-01-15 18:05:00,30.5,23.5,30.68,NNE,22,0.0,3.0,75,0.00,,,0.19,Wunderground v.1.15,2013-01-16 02:05:00,
2013-01-15 18:10:00,30.4,23.4,30.68,NNE,22,0.0,3.0,75,0.00,,,0.19,Wunderground v.1.15,2013-01-16 02:10:00,
2013-01-15 18:20:00,30.1,23.1,30.68,NNE,21,0.0,3.0,75,0.00,,,0.19,Wunderground v.1.15,2013-01-16 02:20:00,
2013-01-15 18:25:00,29.9,22.9,30.68,NNE,21,0.0,3.0,75,0.00,,,0.19,Wunderground v.1.15,2013-01-16 02:25:00,
2013-01-15 18:30:00,29.8,22.8,30.68,NNE,22,0.0,3.0,75,0.00,,,0.19,Wunderground v.1.15,2013-01-16 02:30:00,
2013-01-15 18:35:00,29.8,22.8,30.68,NNE,22,0.0,3.0,75,0.00,,,0.19,Wunderground v.1.15,2013-01-16 02:35:00,
2013-01-15 18:40:00,29.7,22.7,30.67,NNE,21,0.0,3.0,75,0.00,,,0.19,Wunderground v.1.15,2013-01-16 02:40:00,
2013-01-15 18:45:00,29.7,22.7,30.67,NNE,22,0.0,3.0,75,0.00,,,0.19,Wunderground v.1.15,2013-01-16 02:45:00,
2013-01-15 18:50:00,29.7,22.7,30.68,NNE,21,0.0,3.0,75,0.00,,,0.19,Wunderground v.1.15,2013-01-16 02:50:00,
2013-01-15 18:55:00,29.8,22.8,30.68,NNE,22,0.0,3.0,75,0.00,,,0.19,Wunderground v.1.15,2013-01-16 02:55:00,
2013-01-15 19:00:00,29.9,22.9,30.68,NNE,22,0.0,3.0,75,0.00,,,0.19,Wunderground v.1.15,2013-01-16 03:00:00,
2013-01-15 19:05:00,29.9,22.9,30.68,NNE,22,0.0,3.0,75,0.00,,,0.19,Wunderground v.1.15,2013-01-16 03:05:00,
2013-01-15 19:10:00,29.6,22.6,30.68,NNE,22,0.0,3.0,75,0.00,,,0.19,Wunderground v.1.15,2013-01-16 03:10:00,
2013-01-15 19:15:00,29.6,22.6,30.68,ENE,70,0.0,3.0,75,0.00,,,0.19,Wunderground v.1.15,2013-01-16 03:15:00,
2013-01-15 19:20:00,29.4,22.5,30.68,ENE,70,0.0,3.0,75,0.00,,,0.19,Wunderground v.1.15,2013-01-16 03:20:00,
2013-01-15 19:25:00,29.3,22.4,30.68,ENE,69,0.0,3.0,75,0.00,,,0.19,Wunderground v.1.15,2013-01-16 03:25:00,
2013-01-15 19:30:00,29.3,22.4,30.68,ENE,70,0.0,3.0,75,0.00,,,0.19,Wunderground v.1.15,2013-01-16 03:30:00,
2013-01-15 19:35:00,29.3,22.4,30.68,ENE,69,0.0,3.0,75,0.00,,,0.19,Wunderground v.1.15,2013-01-16 03:35:00,
2013-01-15 19:40:00,29.2,22.3,30.68,ENE,68,0.0,3.0,75,0.00,,,0.19,Wunderground v.1.15,2013-01-16 03:40:00,
2013-01-15 19:45:00,29.3,22.4,30.68,ENE,70,0.0,3.0,75,0.00,,,0.19,Wunderground v.1.15,2013-01-16 03:45:00,
2013-01-15 19:50:00,29.3,22.4,30.68,ENE,68,0.0,3.0,75,0.00,,,0.19,Wunderground v.1.15,2013-01-16 03:50:00,
2013-01-15 19:55:00,29.2,22.3,30.68,ENE,68,0.0,3.0,75,0.00,,,0.19,Wunderground v.1.15,2013-01-16 03:55:00,
2013-01-15 20:00:00,29.2,22.3,30.68,ENE,68,0.0,3.0,75,0.00,,,0.19,Wunderground v.1.15,2013-01-16 04:00:00,
2013-01-15 20:05:00,29.3,22.4,30.68,ENE,68,0.0,3.0,75,0.00,,,0.19,Wunderground v.1.15,2013-01-16 04:05:00,
2013-01-15 20:10:00,29.3,22.4,30.68,ENE,68,0.0,3.0,75,0.00,,,0.19,Wunderground v.1.15,2013-01-16 04:10:00,
2013-01-15 20:14:00,29.5,22.6,30.68,North,1,0.0,3.0,75,0.00,,,0.19,Wunderground v.1.15,2013-01-16 04:14:00,
2013-01-15 20:20:00,29.8,23.2,30.68,North,11,0.0,3.0,76,0.00,,,0.19,Wunderground v.1.15,2013-01-16 04:20:00,
2013-01-15 20:25:00,29.9,23.3,30.68,North,11,0.0,3.0,76,0.00,,,0.19,Wunderground v.1.15,2013-01-16 04:25:00,
2013-01-15 20:30:00,30.0,23.4,30.68,North,11,0.0,3.0,76,0.00,,,0.19,Wunderground v.1.15,2013-01-16 04:30:00,
2013-01-15 20:35:00,30.1,23.4,30.68,North,11,0.0,3.0,76,0.00,,,0.19,Wunderground v.1.15,2013-01-16 04:35:00,
2013-01-15 20:40:00,30.2,23.5,30.68,NNE,12,0.0,3.0,76,0.00,,,0.19,Wunderground v.1.15,2013-01-16 04:40:00,
2013-01-15 20:50:00,30.4,23.7,30.68,WNW,303,1.0,1.0,76,0.00,,,0.19,Wunderground v.1.15,2013-01-16 04:50:00,
2013-01-15 20:55:00,30.2,23.5,30.68,WNW,303,0.0,3.0,76,0.00,,,0.19,Wunderground v.1.15,2013-01-16 04:55:00,
2013-01-15 21:00:00,30.0,23.4,30.68,WNW,303,0.0,3.0,76,0.00,,,0.19,Wunderground v.1.15,2013-01-16 05:00:00,
2013-01-15 21:05:00,29.8,23.2,30.68,WNW,303,0.0,3.0,76,0.00,,,0.19,Wunderground v.1.15,2013-01-16 05:05:00,
2013-01-15 21:10:00,29.7,23.1,30.67,WNW,303,0.0,3.0,76,0.00,,,0.19,Wunderground v.1.15,2013-01-16 05:10:00,
2013-01-15 21:15:00,29.7,23.1,30.67,West,276,0.0,3.0,76,0.00,,,0.19,Wunderground v.1.15,2013-01-16 05:15:00,
2013-01-15 21:20:00,29.7,23.1,30.67,North,360,0.0,3.0,76,0.00,,,0.19,Wunderground v.1.15,2013-01-16 05:20:00,
2013-01-15 21:25:00,29.6,23.0,30.67,North,360,0.0,3.0,76,0.00,,,0.19,Wunderground v.1.15,2013-01-16 05:25:00,
2013-01-15 21:30:00,29.6,23.0,30.67,North,360,0.0,3.0,76,0.00,,,0.19,Wunderground v.1.15,2013-01-16 05:30:00,
2013-01-15 21:35:00,29.4,22.8,30.67,North,359,0.0,3.0,76,0.00,,,0.19,Wunderground v.1.15,2013-01-16 05:35:00,
2013-01-15 21:40:00,29.5,22.9,30.67,West,270,0.0,3.0,76,0.00,,,0.19,Wunderground v.1.15,2013-01-16 05:40:00,
2013-01-15 21:45:00,29.4,23.1,30.67,West,270,0.0,3.0,77,0.00,,,0.19,Wunderground v.1.15,2013-01-16 05:45:00,
2013-01-15 21:50:00,29.6,23.3,30.67,WSW,250,0.0,3.0,77,0.00,,,0.19,Wunderground v.1.15,2013-01-16 05:50:00,
2013-01-15 21:55:00,29.5,23.2,30.67,WSW,245,0.0,3.0,77,0.00,,,0.19,Wunderground v.1.15,2013-01-16 05:55:00,
2013-01-15 22:00:00,29.4,23.1,30.67,WSW,242,0.0,3.0,77,0.00,,,0.19,Wunderground v.1.15,2013-01-16 06:00:00,
2013-01-15 22:05:00,29.6,23.3,30.67,SW,225,1.0,3.0,77,0.00,,,0.19,Wunderground v.1.15,2013-01-16 06:05:00,
2013-01-15 22:10:00,30.0,23.7,30.67,SW,224,0.0,3.0,77,0.00,,,0.19,Wunderground v.1.15,2013-01-16 06:10:00,
2013-01-15 22:15:00,29.8,23.5,30.67,SW,231,0.0,3.0,77,0.00,,,0.19,Wunderground v.1.15,2013-01-16 06:15:00,
2013-01-15 22:20:00,29.7,23.4,30.67,SW,231,0.0,3.0,77,0.00,,,0.19,Wunderground v.1.15,2013-01-16 06:20:00,
2013-01-15 22:25:00,29.8,23.5,30.67,West,271,0.0,3.0,77,0.00,,,0.19,Wunderground v.1.15,2013-01-16 06:25:00,
2013-01-15 22:30:00,29.8,23.5,30.67,WSW,249,0.0,3.0,77,0.00,,,0.19,Wunderground v.1.15,2013-01-16 06:30:00,
2013-01-15 22:35:00,29.7,23.4,30.67,West,260,0.0,3.0,77,0.00,,,0.19,Wunderground v.1.15,2013-01-16 06:35:00,
2013-01-15 22:40:00,29.6,23.3,30.67,NNE,12,0.0,3.0,77,0.00,,,0.19,Wunderground v.1.15,2013-01-16 06:40:00,
2013-01-15 22:45:00,29.4,23.1,30.67,WSW,252,0.0,3.0,77,0.00,,,0.19,Wunderground v.1.15,2013-01-16 06:45:00,
2013-01-15 22:50:00,29.6,23.3,30.67,West,263,0.0,3.0,77,0.00,,,0.19,Wunderground v.1.15,2013-01-16 06:50:00,
2013-01-15 22:55:00,29.8,23.5,30.67,WSW,241,1.0,3.0,77,0.00,,,0.19,Wunderground v.1.15,2013-01-16 06:55:00,
2013-01-15 23:00:00,29.7,23.4,30.67,West,263,0.0,3.0,77,0.00,,,0.19,Wunderground v.1.15,2013-01-16 07:00:00,
2013-01-15 23:05:00,29.9,23.6,30.67,SW,231,0.0,3.0,77,0.00,,,0.19,Wunderground v.1.15,2013-01-16 07:05:00,
2013-01-15 23:10:00,30.0,23.7,30.67,WSW,249,1.0,3.0,77,0.00,,,0.19,Wunderground v.1.15,2013-01-16 07:10:00,
2013-01-15 23:15:00,30.1,23.8,30.67,WSW,257,1.0,3.0,77,0.00,,,0.19,Wunderground v.1.15,2013-01-16 07:15:00,
2013-01-15 23:20:00,30.1,23.8,30.67,SSW,212,1.0,3.0,77,0.00,,,0.19,Wunderground v.1.15,2013-01-16 07:20:00,
2013-01-15 23:25:00,30.2,23.9,30.67,SSW,205,1.0,3.0,77,0.00,,,0.19,Wunderground v.1.15,2013-01-16 07:25:00,
2013-01-15 23:30:00,30.0,23.4,30.67,SE,125,1.0,1.0,76,0.00,,,0.19,Wunderground v.1.15,2013-01-16 07:30:00,
2013-01-15 23:35:00,30.1,23.4,30.67,WNW,283,0.0,3.0,76,0.00,,,0.19,Wunderground v.1.15,2013-01-16 07:35:00,
2013-01-15 23:40:00,30.2,23.5,30.67,NNE,20,1.0,1.0,76,0.00,,,0.19,Wunderground v.1.15,2013-01-16 07:40:00,
2013-01-15 23:45:00,30.2,23.5,30.67,ENE,73,0.0,3.0,76,0.00,,,0.19,Wunderground v.1.15,2013-01-16 07:45:00,
2013-01-15 23:50:00,30.3,23.6,30.67,NE,42,0.0,3.0,76,0.00,,,0.19,Wunderground v.1.15,2013-01-16 07:50:00,
2013-01-15 23:54:00,30.2,23.5,30.67,SE,128,0.0,3.0,76,0.00,,,0.19,Wunderground v.1.15,2013-01-16 07:54:00,